sat.trackr.live / text

‹ back to catalog

ONEWEB-0361

NORAD 49287 · 2021-090J

PAYLOAD ACTIVE UNKNOWN

§ Identity

Operator
Country
UK
Launch date
2021-10-14
Launch site
VOSTO
Launch vehicle
Mass (kg)
RCS (m²)

Purposes: comms

External: N2YO · Heavens-Above · Gunter

§ Orbital elements

Epoch: 2026-09-19T16:38:22.399584Z

Period
109.03 min
Inclination
87.9142°
Eccentricity
0.0002007
Mean motion
13.20773610 rev/d
Perigee alt
1,180.2 km
Apogee alt
1,183.3 km
Semi-major
7,559.9 km
B*
1.7764e-4
RAAN
255.5858°
Arg perigee
91.5136°
Mean anomaly
268.6227°
Rev number
24,277

§ Raw data

ONEWEB-03611 49287U 21090J   26262.69331481  .00000085  00000+0  17764-3 0  99952 49287  87.9142 255.5858 0002007  91.5136 268.6227 13.20773610242770

JSON: /api/v1/satellites/49287 · /tle

For live sub-satellite position, see the globe view (requires WebGL).

§ Visibility from observer

Set your observer location to see the next 7 days of passes ≥ 10°. The values pass through the URL so the page stays shareable.

No JS? Fill the form by hand. The geolocation button needs JavaScript.